This is the latest recevied weather packets stored in our database for station/object G6FCI. If no packets are shown the sender has not sent any weather packets the latest 10 day(s).
| Time | Temp. | Humidity | Pressure | Rain* | Wind** | Luminosity | Snow |
|---|---|---|---|---|---|---|---|
| 1777568043 | 22.78° C | 43% | 1019.1 hPa | 0 mm | - | - | - |
| 1777561743 | 25° C | 40% | 1019.5 hPa | 0 mm | - | - | - |
| 1777559763 | 24.44° C | 41% | 1019.7 hPa | 0 mm | - | - | - |
| 1777559223 | 23.89° C | 39% | 1019.7 hPa | 0 mm | - | - | - |
| 1777556163 | 22.78° C | 46% | 1020.3 hPa | 0 mm | - | - | - |
| 1777554003 | 22.22° C | 47% | 1020.7 hPa | 0 mm | - | - | - |
| 1777552563 | 21.67° C | 51% | 1021 hPa | 0 mm | - | - | - |
| 1777552044 | 21.11° C | 51% | 1021.1 hPa | 0 mm | - | - | - |
| 1777550943 | 21.67° C | 53% | 1021.2 hPa | 0 mm | - | - | - |
| 1777549524 | 20° C | 55% | 1021.4 hPa | 0 mm | - | - | - |
| 1777548963 | 20° C | 55% | 1021.5 hPa | 0 mm | - | - | - |
| 1777548423 | 20° C | 54% | 1021.6 hPa | 0 mm | - | - | - |
| 1777545903 | 18.89° C | 61% | 1021.9 hPa | 0 mm | - | - | - |
| 1777543743 | 18.89° C | 72% | 1022.4 hPa | 0 mm | - | - | - |
| 1777542303 | 17.22° C | 78% | 1022.8 hPa | 0 mm | - | - | - |
| 1777536003 | 12.22° C | 74% | 1024.2 hPa | 0 mm | - | - | - |
| 1777533483 | 11.11° C | 73% | 1024.6 hPa | 0 mm | - | - | - |
| 1777532943 | 10.56° C | 73% | 1024.7 hPa | 0 mm | - | - | - |
| 1777530963 | 8.89° C | 74% | 1024.9 hPa | 0 mm | - | - | - |
| 1777530423 | 8.89° C | 74% | 1024.8 hPa | 0 mm | - | - | - |
| 1777529343 | 8.33° C | 74% | 1025 hPa | 0 mm | - | - | - |
| 1777525203 | 7.78° C | 81% | 1025.3 hPa | 0 mm | - | - | - |
| 1777523763 | 7.22° C | 84% | 1025.5 hPa | 0 mm | - | - | - |
| 1777522683 | 7.78° C | 85% | 1025.5 hPa | 0 mm | - | - | - |
| 1777521603 | 7.22° C | 85% | 1025.6 hPa | 0 mm | - | - | - |
* Rain latest hour (hover to see other rain measurements)
** Current wind speed in m/s (hover to see current wind gust speed)